COSMOS 252 DEB, 3559

Orbit data source: Space-Track

COSMOS 252 DEB, 3559 is space debris in LEO originally from a launch on Fri, 01 Nov 1968 UTC launched from the Tyuratam Missile And Space Complex (TTMTR). Debris objects in space refer to the collection of defunct objects orbiting the Earth. Examples of debris include non-operational satellites, rocket bodies, and fragments generated from explosions, collisions, or faulty payload assembly.

Loading next visibility...
Identifier
3559, 1968-097M
Orbit
LEO
Country
Flag of CISCIS
Related business
Manufacturer
Unknown
Mission
Spacecraft
Bus & Motor
Unknown
Mass
Unknown
Launch date (UTC)
1968-11-01 (57 years ago)
Launch vehicle
Unknown
Launch site
Tyuratam Missile And Space Complex (TTMTR)
Object type
Payload
Rocket body
Debris
Shape & HBR
Unknown shape, 0.2 m
Radar Cross Section
Small (<0.1 m²)

Expand to show TLE details & history
Last TLE update: 8 hours ago

TLE from 8 hours ago
0 COSMOS 252 DEB
1  3559U 68097M   26036.41408346  .00004305  00000-0  88184-3 0  9993
2  3559  62.2903  33.3824 0449583 223.1471 133.3527 14.13681021825255
Epoch: 2026-02-05T09:56Z
TLE epoch observation values (Epoch: 2026-02-05T09:56:16.810Z)
Latitude
0.00003°
Longitude
108.74572°
Altitude
1,078.9 km
Speed
7.196 km/s
True Right ascension
02h 13m 31s
True Declination
0° 00' 00"
Sunlit
Object was in daylight at epoch
Visualization orbit readout
Latitude
Unknown
Longitude
Unknown
Altitude
Unknown
Speed
Unknown
Apparent Right ascension
Unknown
Apparent Declination
Unknown
Sunlit
N/A
Visualization observer readout
Local Sidereal Time
20:16:00
Azimuth
Unknown
Elevation
Unknown
Doppler factor
Unknown
Orbital elements
Apogee altitude
1,170.506 km
Perigee altitude
520.96 km
Semi-major axis
7,223.87 km
Eccentricity
0.04496
Inclination
62.2903°
RAAN
33.3824°
Arg. of periapsis
223.1471°
True anomaly
136.9571°
Mean anomaly
133.3527°
Eccentric anomaly
135.16878°
Mean motion
3.53499 °/min
Orbital period
101.84 mins
BSTAR
0.00088184
Loading maneuver chart data...
Computing Atmospheric mass density...
Loading historical data...
Loading historical data...
Loading historical data...
Loading historical data...
Loading historical data...
Loading historical data...
Loading historical data...

Documentation

Showing up to 5 results
|